Change the Weather History Date:

Wednesday, January 8, 2014

  Actual Average Record
Temperature  
Mean Temperature 60 °F -  
Max Temperature 66 °F 72 °F 85 °F (2015)
Min Temperature 53 °F 56 °F 48 °F (2008)
Degree Days  
Heating Degree Days 6    
Growing Degree Days 10 (Base 50)    
Moisture  
Dew Point 47 °F    
Average Humidity 62    
Maximum Humidity 72    
Minimum Humidity 39    
Precipitation  
Precipitation 0.00 in 0.02 in - ()
Sea Level Pressure  
Sea Level Pressure 30.15 in    
Wind  
Wind Speed 8 mph ()    
Max Wind Speed 13 mph    
Max Gust Speed -    
Visibility 4.9 miles    
Events      
Averages and records for this station are not official NWS values.
T = Trace of Precipitation, MM = Missing Value Source: Averaged Metar Reports

Daily Weather History Graph

Daily Weather History Graph

Search for Another Location

Airport or City:

Trip Planner

Search our weather history database for the weather conditions in past years. The results will help you decide how hot, cold, wet, or windy it might be!

Date:

Astronomy

Jan. 08, 2014 Rise Set
Actual Time 6:20 AM AST 5:00 PM AST
Civil Twilight 5:55 AM AST 5:24 PM AST
Nautical Twilight 5:27 AM AST 5:53 PM AST
Astronomical Twilight 4:59 AM AST 6:21 PM AST
Moon 11:18 AM AST (1/8) No Moon Set
Length of Visible Light 11h 29m
Length of Day
10h 39m
First Quarter, 52% of the Moon is Illuminated
Jan 8
First Quarter
Jan 16
Full
Jan 24
Last Quarter
Jan 31
New
Feb 6
First Quarter

Hourly Weather History & Observations

Time (AST) Temp. Dew Point Humidity Pressure Visibility Wind Dir Wind Speed Gust Speed Precip Events Conditions
12:00 AM 55 °F 37 °F 39% 30.12 in 6 mi WNW 8.1 mph - -  
12:00 AM 55.4 °F 37.4 °F 51% 30.09 in - WNW 8.1 mph - N/A   Clear
12:30 AM 55.4 °F 37.4 °F 51% 30.12 in - West 5.8 mph - N/A   Clear
1:00 AM 53.6 °F 39.2 °F 58% 30.09 in - West 5.8 mph - N/A   Clear
1:30 AM 55.4 °F 41.0 °F 58% 30.09 in - WNW 8.1 mph - N/A   Clear
2:00 AM 55.4 °F 42.8 °F 63% 30.09 in - West 5.8 mph - N/A   Clear
2:30 AM 55.4 °F 42.8 °F 63% 30.09 in - WNW 10.4 mph - N/A   Clear
3:00 AM 55 °F 44 °F 56% 30.11 in 6 mi WNW 8.1 mph - -  
3:00 AM 55.4 °F 44.6 °F 67% 30.09 in - WNW 8.1 mph - N/A   Clear
3:30 AM 55.4 °F 42.8 °F 63% 30.09 in - WNW 11.5 mph - N/A   Clear
4:00 AM 55.4 °F 42.8 °F 63% 30.09 in - WNW 12.7 mph - N/A   Clear
4:30 AM 55.4 °F 42.8 °F 63% 30.09 in - WNW 12.7 mph - N/A   Clear
5:00 AM 55.4 °F 44.6 °F 67% 30.09 in - West 8.1 mph - N/A   Clear
5:30 AM 55.4 °F 44.6 °F 67% 30.12 in - WNW 6.9 mph - N/A   Clear
6:00 AM 55 °F 45 °F 60% 30.15 in 6 mi West 6.9 mph - -   Scattered Clouds
6:00 AM 55.4 °F 44.6 °F 67% 30.12 in - West 6.9 mph - N/A   Clear
6:30 AM 53.6 °F 44.6 °F 72% 30.12 in 5.0 mi West 5.8 mph - N/A   Unknown
7:00 AM 55.4 °F 44.6 °F 67% 30.15 in 5.6 mi West 5.8 mph - N/A   Unknown
8:00 AM 57.2 °F 46.4 °F 67% 30.18 in - West 8.1 mph - N/A   Clear
8:30 AM 57.2 °F 46.4 °F 67% 30.18 in - West 9.2 mph - N/A   Clear
9:00 AM 59.0 °F 46.4 °F 63% 30.21 in - Variable 6.9 mph - N/A   Clear
9:30 AM 60.8 °F 46.4 °F 59% 30.21 in - West 9.2 mph - N/A   Clear
10:00 AM 60.8 °F 48.2 °F 63% 30.18 in - WNW 9.2 mph - N/A   Clear
11:00 AM 62.6 °F 48.2 °F 59% 30.18 in - WNW 9.2 mph - N/A   Clear
12:00 PM 65 °F 48 °F 44% 30.17 in 6 mi WNW 9.2 mph - -   Mostly Cloudy
12:00 PM 66.2 °F 48.2 °F 52% 30.15 in - WNW 9.2 mph - N/A   Clear
1:00 PM 64.4 °F 48.2 °F 56% 30.12 in - WNW 9.2 mph - N/A   Clear
1:30 PM 66.2 °F 50.0 °F 56% 30.12 in - WNW 9.2 mph - N/A   Clear
2:00 PM 66.2 °F 48.2 °F 52% 30.12 in - NW 10.4 mph - N/A   Clear
2:30 PM 66.2 °F 50.0 °F 56% 30.12 in - NNW 11.5 mph - N/A   Clear
3:00 PM 65 °F 51 °F 49% 30.13 in 7 mi NW 9.2 mph - -   Partly Cloudy
3:00 PM 66.2 °F 50.0 °F 56% 30.12 in - NW 9.2 mph - N/A   Clear
3:30 PM 66.2 °F 50.0 °F 56% 30.12 in - NW 9.2 mph - N/A   Clear
4:00 PM 64.4 °F 51.8 °F 64% 30.12 in - NNW 9.2 mph - N/A   Clear
4:30 PM 64.4 °F 51.8 °F 64% 30.15 in - NW 8.1 mph - N/A   Clear
5:00 PM 64.4 °F 51.8 °F 64% 30.15 in 5.0 mi NNW 9.2 mph - N/A   Unknown
5:30 PM 62.6 °F 51.8 °F 68% 30.15 in 5.0 mi NW 8.1 mph - N/A   Unknown
6:00 PM 62 °F 51 °F 58% 30.19 in 5 mi NW 6.9 mph - -   Haze
6:00 PM 62.6 °F 51.8 °F 68% 30.18 in 5.0 mi NW 6.9 mph - N/A   Unknown
6:30 PM 62.6 °F 51.8 °F 68% 30.18 in 5.0 mi NW 6.9 mph - N/A   Unknown
7:00 PM 60.8 °F 51.8 °F 72% 30.18 in 5.0 mi NW 9.2 mph - N/A   Unknown
7:30 PM 60.8 °F 51.8 °F 72% 30.18 in 4.3 mi NW 6.9 mph - N/A   Unknown
8:00 PM 60.8 °F 51.8 °F 72% 30.18 in 4.3 mi NW 9.2 mph - N/A   Unknown
8:30 PM 60.8 °F 50.0 °F 68% 30.21 in 4.3 mi NW 8.1 mph - N/A   Unknown
9:00 PM 60 °F 51 °F 64% 30.22 in 4 mi NW 8.1 mph - -   Haze
9:00 PM 60.8 °F 51.8 °F 72% 30.21 in 4.3 mi NW 8.1 mph - N/A   Unknown
9:30 PM 60.8 °F 50.0 °F 68% 30.21 in 4.3 mi NW 8.1 mph - N/A   Unknown
10:00 PM 59.0 °F 50.0 °F 72% 30.21 in 3.7 mi WNW 8.1 mph - N/A   Unknown
10:30 PM 59.0 °F 50.0 °F 72% 30.18 in 3.7 mi WNW 6.9 mph - N/A   Unknown
11:00 PM 59.0 °F 50.0 °F 72% 30.18 in 3.7 mi NW 6.9 mph - N/A   Unknown